Location: Shenandoah County Park
(38.9356°N, 78.4524°W)
Time: 11:10:05
(UTC-04:00)

Explorer 7 - Visible Passes

Search period start: 19 July 2025 00:00
Search period end: 29 July 2025 00:00
Orbit: 444 x 569 km, 50.3° (Epoch: 18 July)

Date Brightness Start Highest point End Pass type
(mag) Time Alt. Az. Time Alt. Az. Time Alt. Az.
19 Jul 9.2 02:41:03 17° E 02:41:03 17° E 02:42:25 10° ENE visible
19 Jul 7.2 04:15:47 31° W 04:17:38 58° NNW 04:21:51 10° NE visible
20 Jul 9.4 02:22:03 14° E 02:22:03 14° E 02:22:51 10° ENE visible
20 Jul 7.3 03:56:47 39° W 03:58:01 55° NNW 04:02:13 10° NE visible
21 Jul 9.6 02:02:59 11° ENE 02:02:59 11° ENE 02:03:16 10° ENE visible
21 Jul 7.4 03:37:43 47° WNW 03:38:22 52° NNW 03:42:33 10° NE visible
21 Jul 9.1 05:14:49 10° WNW 05:18:00 20° NNW 05:21:10 10° NE visible
22 Jul 7.5 03:18:36 49° NW 03:18:42 49° NNW 03:22:53 10° NE visible
22 Jul 9.1 04:55:12 10° WNW 04:58:22 20° N 05:01:31 10° NE visible
23 Jul 7.8 02:59:25 45° N 02:59:25 45° N 03:03:10 10° NE visible
23 Jul 9.2 04:35:35 10° WNW 04:38:42 19° N 04:41:50 10° NE visible
24 Jul 8.2 02:40:12 39° N 02:40:12 39° N 02:43:27 10° NE visible
24 Jul 9.3 04:15:56 10° NW 04:19:03 19° N 04:22:08 10° NE visible
25 Jul 8.5 02:20:56 33° NNE 02:20:56 33° NNE 02:23:43 10° NE visible
25 Jul 9.3 03:56:16 10° NW 03:59:21 19° N 04:02:25 10° NE visible
25 Jul 9.4 05:36:14 10° NW 05:39:26 20° NNE 05:42:35 10° ENE visible
26 Jul 8.8 02:01:36 28° NNE 02:01:36 28° NNE 02:03:57 10° NE visible
26 Jul 9.4 03:36:35 10° NW 03:39:39 19° N 03:42:41 10° NE visible
26 Jul 9.4 05:16:29 10° NW 05:19:43 20° NNE 05:22:55 10° ENE visible
27 Jul 9.1 01:42:14 23° NNE 01:42:14 23° NNE 01:44:10 10° NE visible
27 Jul 9.4 03:16:56 10° NW 03:19:55 18° N 03:22:56 10° NE visible
27 Jul 9.4 04:56:42 10° NW 04:59:59 21° NNE 05:03:14 10° ENE visible
28 Jul 9.3 01:22:48 20° NNE 01:22:48 20° NNE 01:24:22 10° NE visible
28 Jul 9.5 02:57:30 11° NW 03:00:10 18° N 03:03:11 10° NE visible
28 Jul 9.4 04:36:55 10° NW 04:40:14 21° NNE 04:43:31 10° ENE visible
